| time (UTC) | temp F | wind direction | speed MPH | gust MPH | rain 1hr in | rain 24hr in | rain mn in | humidity % | barometer mb |
| 20260508231557 | 67 | 240 | 0.0 | 0.0 | 0.00 | 0.00 | 0.00 | 55 | 1013.6 |
| 20260508230058 | 68 | 240 | 0.0 | 0.0 | 0.00 | 0.00 | 0.00 | 45 | 1013.6 |
| 20260508224610 | 68 | 240 | 0.0 | 0.0 | 0.00 | 0.00 | 0.00 | 46 | 1013.5 |
| 20260508223052 | 69 | 240 | 0.0 | 0.0 | 0.00 | 0.00 | 0.00 | 44 | 1013.7 |
| 20260508221551 | 69 | 240 | 0.0 | 0.0 | 0.00 | 0.00 | 0.00 | 43 | 1013.4 |
| 20260508220055 | 70 | 240 | 0.0 | 0.0 | 0.00 | 0.00 | 0.00 | 42 | 1013.5 |
| 20260508214551 | 71 | 240 | 0.0 | 1.0 | 0.00 | 0.00 | 0.00 | 42 | 1013.5 |
| 20260508213050 | 71 | 240 | 0.0 | 2.0 | 0.00 | 0.00 | 0.00 | 39 | 1013.3 |
| 20260508211549 | 71 | 232 | 0.0 | 0.0 | 0.00 | 0.00 | 0.00 | 43 | 1013.4 |
| 20260508210049 | 71 | 231 | 0.0 | 0.0 | 0.00 | 0.00 | 0.00 | 40 | 1013.5 |
| 20260508204551 | 72 | 223 | 0.0 | 3.0 | 0.00 | 0.04 | 0.00 | 40 | 1013.7 |
| 20260508203054 | 73 | 223 | 0.0 | 1.0 | 0.00 | 0.04 | 0.00 | 39 | 1014.3 |
| 20260508201548 | 73 | 222 | 0.0 | 2.0 | 0.00 | 0.04 | 0.00 | 34 | 1014.2 |
| 20260508200059 | 74 | 217 | 0.0 | 1.0 | 0.00 | 0.04 | 0.00 | 42 | 1014.2 |
| 20260508194546 | 73 | 246 | 0.0 | 1.0 | 0.00 | 0.04 | 0.00 | 36 | 1014.4 |
| 20260508193046 | 73 | 246 | 0.0 | 1.0 | 0.00 | 0.04 | 0.00 | 40 | 1014.9 |
| 20260508191551 | 73 | 246 | 0.0 | 2.0 | 0.00 | 0.04 | 0.00 | 39 | 1014.9 |
| 20260508190044 | 73 | 286 | 0.0 | 3.0 | 0.00 | 0.04 | 0.00 | 39 | 1015.2 |
| 20260508184547 | 72 | 211 | 0.0 | 0.0 | 0.00 | 0.06 | 0.00 | 37 | 1015.3 |
| 20260508183039 | 72 | 202 | 0.0 | 3.0 | 0.00 | 0.06 | 0.00 | 41 | 1015.5 |
| 20260508181539 | 71 | 254 | 0.0 | 0.0 | 0.00 | 0.06 | 0.00 | 39 | 1015.7 |
| 20260508180036 | 71 | 254 | 0.0 | 1.0 | 0.00 | 0.06 | 0.00 | 33 | 1015.9 |
| 20260508174538 | 70 | 238 | 0.0 | 1.0 | 0.00 | 0.07 | 0.00 | 40 | 1016.3 |
| 20260508173031 | 69 | 236 | 0.0 | 2.0 | 0.00 | 0.07 | 0.00 | 45 | 1016.4 |
| 20260508171531 | 69 | 237 | 0.0 | 3.0 | 0.00 | 0.07 | 0.00 | 43 | 1016.4 |
| 20260508170029 | 68 | 225 | 0.0 | 1.0 | 0.00 | 0.07 | 0.00 | 45 | 1016.6 |
| 20260508164524 | 68 | 224 | 0.0 | 2.0 | 0.00 | 0.13 | 0.00 | 46 | 1016.9 |
| 20260508163021 | 66 | 221 | 0.0 | 0.0 | 0.00 | 0.13 | 0.00 | 51 | 1017.2 |
| 20260508161519 | 65 | 221 | 0.0 | 1.0 | 0.00 | 0.13 | 0.00 | 50 | 1017.3 |
| 20260508160017 | 64 | 148 | 0.0 | 0.0 | 0.00 | 0.13 | 0.00 | 58 | 1017.5 |
| 20260508154511 | 63 | 145 | 0.0 | 1.0 | 0.00 | 0.16 | 0.00 | 50 | 1017.7 |
| 20260508153009 | 62 | 78 | 0.0 | 1.0 | 0.00 | 0.16 | 0.00 | 50 | 1017.9 |
| 20260508151506 | 62 | 79 | 0.0 | 4.0 | 0.00 | 0.16 | 0.00 | 52 | 1017.9 |
| 20260508150006 | 62 | 80 | 0.0 | 3.0 | 0.00 | 0.16 | 0.00 | 55 | 1018.0 |
| 20260508144502 | 61 | 142 | 0.0 | 1.0 | 0.00 | 0.22 | 0.00 | 60 | 1017.9 |
| 20260508143109 | 60 | 97 | 0.0 | 2.0 | 0.00 | 0.22 | 0.00 | 62 | 1017.8 |
| 20260508141556 | 59 | 60 | 0.0 | 2.0 | 0.00 | 0.22 | 0.00 | 61 | 1017.7 |
| 20260508140057 | 57 | 101 | 0.0 | 3.0 | 0.00 | 0.22 | 0.00 | 72 | 1017.6 |
| 20260508134552 | 54 | 224 | 0.0 | 3.0 | 0.00 | 0.30 | 0.00 | 84 | 1017.5 |
| 20260508133046 | 53 | 119 | 0.0 | 0.0 | 0.00 | 0.30 | 0.00 | 97 | 1017.5 |
| 20260508131541 | 51 | 119 | 0.0 | 0.0 | 0.00 | 0.30 | 0.00 | 97 | 1017.4 |
| 20260508130057 | 50 | 119 | 0.0 | 0.0 | 0.00 | 0.30 | 0.00 | 99 | 1017.3 |
| 20260508124542 | 50 | 119 | 0.0 | 0.0 | 0.00 | 0.39 | 0.00 | 100 | 1017.4 |
| 20260508123050 | 49 | 119 | 0.0 | 0.0 | 0.00 | 0.39 | 0.00 | 99 | 1017.4 |
| 20260508121541 | 47 | 119 | 0.0 | 0.0 | 0.00 | 0.39 | 0.00 | 99 | 1017.0 |
| 20260508120032 | 46 | 119 | 0.0 | 0.0 | 0.00 | 0.39 | 0.00 | 99 | 1016.9 |
| 20260508114532 | 45 | 119 | 0.0 | 0.0 | 0.00 | 0.39 | 0.00 | 99 | 1016.8 |
| 20260508113028 | 45 | 119 | 0.0 | 0.0 | 0.00 | 0.39 | 0.00 | 98 | 1016.5 |
| 20260508111525 | 44 | 119 | 0.0 | 0.0 | 0.00 | 0.39 | 0.00 | 98 | 1016.2 |
| 20260508110027 | 44 | 119 | 0.0 | 0.0 | 0.00 | 0.39 | 0.00 | 98 | 1016.0 |
| 20260508104526 | 44 | 119 | 0.0 | 0.0 | 0.00 | 0.40 | 0.00 | 98 | 1015.8 |
| 20260508103023 | 45 | 119 | 0.0 | 0.0 | 0.00 | 0.40 | 0.00 | 98 | 1015.6 |
| 20260508101522 | 45 | 119 | 0.0 | 0.0 | 0.00 | 0.40 | 0.00 | 98 | 1015.5 |
| 20260508100016 | 45 | 119 | 0.0 | 0.0 | 0.00 | 0.40 | 0.00 | 98 | 1015.2 |
| 20260508094535 | 45 | 119 | 0.0 | 0.0 | 0.00 | 0.43 | 0.00 | 98 | 1015.0 |
| 20260508093016 | 46 | 119 | 0.0 | 0.0 | 0.00 | 0.43 | 0.00 | 98 | 1014.9 |
| 20260508091522 | 46 | 119 | 0.0 | 0.0 | 0.00 | 0.43 | 0.00 | 98 | 1014.8 |
| 20260508090008 | 47 | 119 | 0.0 | 0.0 | 0.00 | 0.43 | 0.00 | 98 | 1014.7 |
| 20260508084505 | 47 | 119 | 0.0 | 0.0 | 0.00 | 0.45 | 0.00 | 98 | 1014.5 |
| 20260508083003 | 47 | 119 | 0.0 | 0.0 | 0.00 | 0.45 | 0.00 | 98 | 1014.5 |
| 20260508081505 | 48 | 119 | 0.0 | 0.0 | 0.00 | 0.45 | 0.00 | 98 | 1014.1 |
| 20260508080100 | 48 | 119 | 0.0 | 0.0 | 0.00 | 0.45 | 0.00 | 98 | 1014.1 |
| 20260508074558 | 48 | 119 | 0.0 | 0.0 | 0.00 | 0.46 | 0.00 | 98 | 1013.9 |
| 20260508073105 | 49 | 119 | 0.0 | 0.0 | 0.00 | 0.46 | 0.00 | 98 | 1013.8 |
| 20260508071612 | 49 | 119 | 0.0 | 0.0 | 0.00 | 0.46 | 0.00 | 98 | 1013.7 |
| 20260508070059 | 50 | 119 | 0.0 | 0.0 | 0.00 | 0.46 | 0.00 | 98 | 1013.5 |
| 20260508064549 | 50 | 119 | 0.0 | 0.0 | 0.00 | 0.47 | 0.00 | 98 | 1013.4 |
| 20260508063048 | 51 | 119 | 0.0 | 0.0 | 0.00 | 0.47 | 0.00 | 98 | 1013.4 |
| 20260508061548 | 51 | 119 | 0.0 | 0.0 | 0.00 | 0.47 | 0.00 | 98 | 1013.5 |
| 20260508060046 | 51 | 119 | 0.0 | 0.0 | 0.00 | 0.47 | 0.00 | 98 | 1013.4 |
| 20260508054550 | 51 | 119 | 0.0 | 0.0 | 0.00 | 0.61 | 0.00 | 98 | 1013.4 |
| 20260508053050 | 51 | 119 | 0.0 | 0.0 | 0.00 | 0.61 | 0.00 | 98 | 1013.5 |
| 20260508051544 | 52 | 119 | 0.0 | 0.0 | 0.00 | 0.61 | 0.00 | 98 | 1013.4 |
| 20260508050044 | 52 | 119 | 0.0 | 0.0 | 0.00 | 0.61 | 0.00 | 98 | 1013.4 |
| 20260508044538 | 52 | 119 | 0.0 | 0.0 | 0.00 | 0.62 | 0.00 | 98 | 1012.9 |
| 20260508043037 | 52 | 119 | 0.0 | 0.0 | 0.00 | 0.62 | 0.00 | 98 | 1012.9 |
| 20260508041538 | 53 | 119 | 0.0 | 0.0 | 0.00 | 0.62 | 0.00 | 98 | 1012.8 |
| 20260508040036 | 53 | 119 | 0.0 | 0.0 | 0.00 | 0.62 | 0.00 | 98 | 1012.7 |
| 20260508034538 | 53 | 119 | 0.0 | 0.0 | 0.00 | 0.68 | 0.62 | 98 | 1012.5 |
| 20260508033038 | 53 | 119 | 0.0 | 0.0 | 0.00 | 0.68 | 0.62 | 98 | 1012.5 |
| 20260508031536 | 53 | 119 | 0.0 | 0.0 | 0.00 | 0.68 | 0.62 | 98 | 1012.3 |
| 20260508030033 | 53 | 119 | 0.0 | 0.0 | 0.00 | 0.68 | 0.62 | 97 | 1012.6 |
| 20260508024529 | 53 | 119 | 0.0 | 0.0 | 0.00 | 0.69 | 0.62 | 97 | 1012.3 |
| 20260508023034 | 54 | 119 | 0.0 | 0.0 | 0.00 | 0.69 | 0.62 | 97 | 1012.1 |
| 20260508021524 | 54 | 119 | 0.0 | 0.0 | 0.00 | 0.69 | 0.62 | 97 | 1011.8 |
| 20260508020022 | 55 | 119 | 0.0 | 0.0 | 0.00 | 0.69 | 0.62 | 97 | 1011.7 |
| 20260508014523 | 55 | 119 | 0.0 | 0.0 | 0.00 | 0.69 | 0.62 | 97 | 1011.5 |
| 20260508013017 | 56 | 119 | 0.0 | 0.0 | 0.00 | 0.69 | 0.62 | 97 | 1011.0 |
| 20260508011517 | 56 | 119 | 0.0 | 0.0 | 0.00 | 0.69 | 0.62 | 97 | 1010.7 |
| 20260508010018 | 56 | 119 | 0.0 | 0.0 | 0.00 | 0.69 | 0.62 | 97 | 1010.6 |
| 20260508004515 | 56 | 119 | 0.0 | 0.0 | 0.00 | 0.69 | 0.62 | 98 | 1010.6 |
| 20260508003015 | 56 | 119 | 0.0 | 0.0 | 0.00 | 0.69 | 0.62 | 98 | 1010.8 |
| 20260508001532 | 56 | 119 | 0.0 | 0.0 | 0.00 | 0.69 | 0.62 | 98 | 1010.7 |
| 20260508000013 | 56 | 119 | 0.0 | 0.0 | 0.00 | 0.69 | 0.62 | 97 | 1010.3 |
| 20260507234512 | 56 | 119 | 0.0 | 0.0 | 0.00 | 0.69 | 0.62 | 97 | 1009.7 |
| 20260507233021 | 56 | 119 | 0.0 | 0.0 | 0.00 | 0.69 | 0.62 | 97 | 1009.7 |